Location: Artiguedieu
(43.5000°N, 0.5454°E)
Time: 20:38:00
(UTC+00:00)

Explorer 7 - Pass Details

Date: 04 August 2021
Orbit: 484 x 676 km, 50.3° (Epoch: 18 September)

Event Time Altitude Azimuth Distance (km) Brightness Sun altitude
Rises 05:26:14 0° 268° (W) 2,554 9.6 5.1°
Reaches altitude 10° 05:28:29 10° 277° (W) 1,688 8.8 5.5°
Maximum altitude 05:32:02 37° 346° (NNW) 801 7.8 6.1°
Drops below altitude 10° 05:35:46 10° 55° (NE) 1,763 11.2 6.8°
Sets 05:38:10 0° 64° (ENE) 2,686 12.6 7.2°
